Location: Staunton
(38.1490°N, 79.0720°W)
Time: 13:48:58
(UTC-04:00)

ISS - Pass Details

Date: 20 July 2019
Orbit: 409 x 418 km, 51.6° (Epoch: 20 July)

Event Time Altitude Azimuth Distance (km) Brightness Sun altitude
Rises 21:34:05 0° 254° (WSW) 2,346 0.6 -10.5°
Reaches altitude 10° 21:36:20 10° 265° (W) 1,484 -0.2 -10.9°
Maximum altitude 21:39:19 30° 329° (NNW) 775 -1.6 -11.3°
Drops below altitude 10° 21:42:18 10° 33° (NNE) 1,486 -0.9 -11.8°
Sets 21:44:33 0° 44° (NE) 2,349 0.0 -12.1°
